User: anonymous   Login
Location: Central Coast
(33.3208°S, 151.2336°E)
Time: 18:04:47
(UTC+11:00)
Language:

Tiangong 1 - Orbit

View from above orbital plane
View from above orbital plane
View from above satellite
View from above satellite

Ground track
Ground track

The orbit data is extracted from the following two-line orbital elements,

1 37820U 11053A   18052.11885703  .00138548  16936-4  18344-3 0  9990
2 37820  42.7513  91.6622 0016283  75.9509  22.8587 16.05805523367581
Epoch (UTC): 21 February 2018 02:51:09
Eccentricity: 0.0016283
inclination: 42.7513°
perigee height: 247 km
apogee height: 269 km
right ascension of ascending node: 91.6622°
argument of perigee: 75.9509°
revolutions per day: 16.05805523
mean anomaly at epoch: 22.8587°
orbit number at epoch: 36758

The dashed part of the orbit path shows where the satellite is in the earth's shadow,  

DLR